Regional Weather Roundup
Issued by NWS

Home | Current Version | Previous Version | Text Only | Print | Product List | Glossary On
Versions: 1 2 3 4 5 6 7 8 9 10 11 12 13 14 15 16 17 18 19 20 21 22 23 24 25 26 27 28 29 30 31 32 33 34 35 36 37 38 39 40 41 42 43 44 45 46 47 48 49 50
000
ASUS43 KLOT 301910
RWRIL

ILLINOIS REGIONAL WEATHER ROUNDUP
NATIONAL WEATHER SERVICE CHICAGO/ROMEOVILLE IL
100 PM CST FRI JAN 30 2015

NOTE: "FAIR" INDICATES FEW OR NO CLOUDS BELOW 12,000 FEET WITH NO
SIGNIFICANT WEATHER AND/OR OBSTRUCTIONS TO VISIBILITY.

* THESE STATIONS ARE NOT UNDER NWS QUALITY CONTROL. THEY ALSO MAY NOT
  REPORT WEATHER SUCH AS PRECIPITATION OR FOG.

ILZ001-002-007-009-015-016-024-302000-
NORTHWEST ILLINOIS

CITY           SKY/WX    TMP DP  RH WIND       PRES   REMARKS
MOLINE         SUNNY     29  14  53 CALM      30.51F
STERLING*      SUNNY     28  12  50 SW3       30.51F
SAVANNA*       MOSUNNY   27  12  51 SW6       30.51F WCI  21
$$

ILZ003-004-008-010-011-017-018-302000-
NORTH CENTRAL ILLINOIS

CITY           SKY/WX    TMP DP  RH WIND       PRES   REMARKS
ROCKFORD       CLOUDY    27  10  49 CALM      30.50F
FREEPORT*      MOSUNNY   25  10  54 W3        30.50F
ROCHELLE*      SUNNY     25  13  62 CALM      30.49F
DE KALB*       SUNNY     24  10  55 NW6       30.49F WCI  17
PERU*          SUNNY     28  16  58 CALM      30.52F
$$

ILZ005-006-012>014-019>023-302000-
NORTHEAST ILLINOIS

CITY           SKY/WX    TMP DP  RH WIND       PRES   REMARKS
CHICAGO-OHARE  PTSUNNY   28   8  43 W5        30.48F WCI  23
CHICAGO-MIDWAY MOSUNNY   30   9  41 VRB5      30.48F WCI  25
AURORA         SUNNY     27  10  49 VRB6      30.50F WCI  20
LANSING*       SUNNY     29  14  52 NE5       30.48F WCI  24
JOLIET*        SUNNY     28  10  45 CALM      30.50F
WAUKEGAN       MOSUNNY   27   8  44 VRB3      30.47F
DUPAGE AIRPORT SUNNY     28   9  44 VRB6      30.48F WCI  22
KANKAKEE*      SUNNY     30  15  54 W9        30.49F WCI  22
WHEELING       SUNNY     28   8  43 NW6       30.50F WCI  22
MORRIS*        SUNNY     29  17  59 NW5       30.50S WCI  24
ROMEOVILLE*    SUNNY     28   8  43 NW6       30.49S WCI  22
NORTHERLY ISL    N/A     26  16  65 MISG        N/A
$$

LMZ740>746-302000-
SOUTHERN LAKE MICHIGAN

STATION/POSITION SKY/WX   TEMP    WIND        PRES    VSBY  WAVE
                          AIR SEA DIR/SP/G                  HT/PER
                          (F)     (DEG/KT/KT) (MB)    (MI)  (FT/S)
WAUKEGAN HARBOR            23      70/  4/ 16   N/A
HARRISON CRIB              24      20/  8/ 10   N/A
BURNHAM HARBOR             26      30/  7/ 10   N/A
CALUMET HARBOR             26      10/  8/ 12   N/A
MICHIGAN CITY              25     330/ 11/ 14   N/A
$$

ILZ025>027-034>036-040-047-049-050-058-095>099-302000-
WEST-CENTRAL ILLINOIS

CITY           SKY/WX    TMP DP  RH WIND       PRES   REMARKS
QUINCY         SUNNY     31  15  52 N3        30.50F
GALESBURG*     SUNNY     30  19  63 W3        30.50F
MACOMB*        SUNNY     31  19  62 CALM      30.53F
JACKSONVILLE*  SUNNY     35  19  51 CALM      30.50F
PITTSFIELD*    SUNNY     34  18  53 CALM      30.51F
$$

ILZ028>032-037-038-041>044-048-051>054-059>061-302000-
CENTRAL ILLINOIS

CITY           SKY/WX    TMP DP  RH WIND       PRES   REMARKS
PONTIAC        PTSUNNY   31  19  61 CALM      30.51S
BLOOMINGTON    MOSUNNY   32  19  58 VRB5      30.49F WCI  27
DECATUR        SUNNY     34  18  52 NE6       30.49F WCI  29
PEORIA         SUNNY     34  17  50 VRB3      30.51F
LACON*         SUNNY     29  14  53 CALM      30.51F
LINCOLN*       SUNNY     33  20  58 NE3       30.51F
SPRINGFIELD    SUNNY     34  18  52 VRB5      30.50F WCI  30
TAYLORVILLE    SUNNY     32  21  64 N3        30.50F
$$

ILZ033-039-045-046-055>057-062-063-302000-
EAST-CENTRAL ILLINOIS

CITY           SKY/WX    TMP DP  RH WIND       PRES   REMARKS
CHAMPAIGN      SUNNY     32  14  47 N6        30.48F WCI  26
DANVILLE*      SUNNY     30  16  55 N3        30.45F
RANTOUL*       SUNNY     33  16  48 NW8       30.49S WCI  26
MATTOON        SUNNY     34  18  52 N8        30.48F WCI  27
PARIS*         SUNNY     34  19  54 CALM      30.49F
$$

ILZ079-100>102-302000-
SOUTHWEST ILLINOIS

CITY           SKY/WX    TMP DP  RH WIND       PRES   REMARKS
ALTON          SUNNY     36  16  44 VRB6      30.51F WCI  31
BELLEVILLE     SUNNY     37  20  50 VRB1      30.50F
CAHOKIA*       SUNNY     38  20  48 NW3       30.51F
SPARTA*        SUNNY     35  22  58 NW5       30.51F WCI  31
$$

ILZ064>066-069>071-074>076-080>082-084>086-088>090-092>094-302000-
SOUTH-CENTRAL ILLINOIS

CITY           SKY/WX    TMP DP  RH WIND       PRES   REMARKS
CARBONDALE     SUNNY     38  18  44 NE5       30.50F WCI  34
CAIRO*         SUNNY     43  23  45 NE12      30.49F
EFFINGHAM*     SUNNY     35  18  49 NW9       30.51F WCI  28
MARION         SUNNY     39  21  48 N8        30.50F WCI  34
MT. VERNON     SUNNY     37  19  48 CALM      30.50F
CENTRALIA*     SUNNY     36  20  52 CALM      30.49F
SALEM*         SUNNY     37  21  52 NW5       30.50F WCI  33
METROPOLIS*    SUNNY     42  24  49 NW3       30.48F
$$

ILZ067-068-072-073-078-083-087-091-302000-
SOUTHEAST ILLINOIS

CITY           SKY/WX    TMP DP  RH WIND       PRES   REMARKS
LAWRENCEVILLE  MOSUNNY   37  21  52 N6        30.49F WCI  32
FLORA*         SUNNY     36  22  57 N7        30.50F WCI  31
FAIRFIELD*     SUNNY     36  22  56 CALM      30.49F
HARRISBURG*    SUNNY     38  23  55 NE5       30.51F WCI  34
ROBINSON*      SUNNY     35  19  52 NW3       30.50F
CARMI*         SUNNY     39  25  56 NW5       30.49F
$$

ABBREVIATIONS USED IN REMARKS
   TC - TEMPERATURE IN CELSIUS
  WCI - WIND CHILL INDEX
   HX - HEAT INDEX
  VSB - VISIBILITY
$$



USA.gov is the U.S. government's official web portal to all federal, state and local government web resources and services.